Regional Weather Roundup
Issued by NWS Portland, ME

Current Version | Previous Version | Text Only | Print | Product List | Glossary Off
Versions: 1 2 3 4 5 6 7 8 9 10 11 12 13 14 15 16 17 18 19 20 21 22 23 24 25 26 27 28 29 30 31 32 33 34 35 36 37 38 39 40 41 42 43 44 45 46 47 48 49 50

641
ASUS41 KGYX 210710
RWRGYX
WEATHER ROUNDUP FOR MAINE AND NEW HAMPSHIRE
NATIONAL WEATHER SERVICE GRAY ME
300 AM EDT THU JUN 21 2018

MEZ002-005-006-010-012-015-018-020-021-024-026-027-029-210800-
MAINE

CITY           SKY/WX    TMP DP  RH WIND       PRES   REMARKS
PORTLAND       FAIR      62  54  74 VRB3      29.71S
SANFORD        FAIR      55  52  89 W5        29.73S
BAR HARBOR     CLOUDY    57  55  93 CALM      29.70R
WISCASSET      FAIR      53  53 100 CALM      29.71F
ROCKLAND       FAIR      55  53  93 W5        29.70S
FRYEBURG       FAIR      67  53  61 W6        29.72F
LEWISTONAUBURN FAIR      55  52  89 CALM      29.72S
AUGUSTA        MOCLDY    66  50  56 W3        29.71S
WATERVILLE     CLOUDY    61  54  77 W3        29.68S
BANGOR         LGT RAIN  61  58  90 CALM      29.70R
GREENVILLE       N/A     59  55  87 NW14G21   29.71R
MILLINOCKET    FAIR      60  57  89 N5        29.72R
HOULTON        FAIR      53  49  86 N6        29.69R
PRESQUE ISLE   FAIR      52  39  61 NW5       29.73
FRENCHVILLE    FAIR      49  35  58 NW9       29.71R
CARIBOU        FAIR      51  39  63 N6        29.71R
$$

NHZ002-005-008-009-011-012-014-210800-
NEW HAMPSHIRE

CITY           SKY/WX    TMP DP  RH WIND       PRES   REMARKS
PORTSMOUTH     PTCLDY    60  53  77 W3        29.71F
ROCHESTER      FAIR      64  52  64 NW5       29.72F
NASHUA         FAIR      56  54  93 CALM      29.75F
MANCHESTER     FAIR      61  53  75 CALM      29.73F
CONCORD        FAIR      56  52  86 CALM      29.75S
LACONIA        FAIR      61  54  77 W5        29.75F
PLYMOUTH         N/A     55  52  92 CALM      29.75F
BERLIN         FAIR      65  54  67 VRB3      29.75S
WHITEFIELD     CLOUDY    60  54  80 CALM      29.76F
JAFFREY        FAIR      54  54 100 CALM      29.78F
KEENE          FAIR      51  50  96 CALM      29.78S
LEBANON        FAIR      54  50  86 CALM      29.77S
MT WASHINGTON  FOG       43  43 100 NW54G61     N/A  VSB 1/16
$$

VTZ005-007-008-210800-
VERMONT

CITY           SKY/WX    TMP DP  RH WIND       PRES   REMARKS
ST JOHNSBURY     N/A     60  56  86 MISG      29.75S
MONTPELIER     FAIR      59  55  87 NW3       29.82F
BURLINGTON     CLOUDY    68  56  65 N7        29.78S
$$

MAZ007-012-024-CTZ003-RIZ002-NYZ038-NYZ072-210800-
SOUTHERN NEW ENGLAND AND NY

CITY           SKY/WX    TMP DP  RH WIND       PRES   REMARKS
BOSTON         FAIR      69  59  70 SW5       29.74F
WORCESTER      FAIR      63  56  78 W9        29.78F
NANTUCKET      CLOUDY    62  60  93 SW6       29.77F
PROVIDENCE     FAIR      68  64  87 SW6       29.76F
HARTFORD       FAIR      64  59  83 SW6       29.76F
ALBANY         MOCLDY    57  51  80 CALM      29.78F
NEW YORK CITY  RAIN      68  65  90 NE12      29.75F FOG
$$

ANZ081-ANZ082-ANZ150-NHZ014-MEZ023>029-210800-
COASTAL MARINE OBSERVATIONS

STATION/POSITION TIME  TEMP    WIND        PRES    WAVE
                       AIR SEA DIR/SP/G            HT/PER
                 (UTC) (F)     (DEG/KT/KT) (MB)    (FT/S)
MOUNT DESERT ROC 0700   54     220/ 13/ 14 1005.4F
MATINICUS ROCK   0700   58     250/ 11/ 12 1005.2S
ISLE OF SHOALS   0700   63     240/  9/ 10 1006.1F
JEFFREYS LEDGE   0636      56                N/A     2/ 7
$$

.............KEY..............
   WCI - WIND CHILL
   TC  - TEMPERATURE IN CELSIUS
   VSB - VISIBILITY IN MILES
   HX  - HEAT INDEX
   FAIR- INDICATES FEW OR NO CLOUDS BELOW 12,000 FT, WITH NO
         SIGNIFICANT WEATHER AND/OR OBSTRUCTIONS TO VISIBILITY.






USA.gov is the U.S. government's official web portal to all federal, state and local government web resources and services.